Powrót do katalogu

STARLINK-36580

AktywnyŁącznośćSSO
NORAD 67546·PAYLOAD·🇺🇸 United States

Wystrzelony Jan 22, 2026 z Vandenberg Space Force Base

Loading…

Następne Przeloty (najbliższe 24 godziny)

TLE

ŚwieżeSource: CelesTrak SupGP

Epoka: Sep 14, 2026, 21:08 UTC

1 67546C 26014Q   26257.88104167 -.00028191  00000+0 -87549-3 0  2573
2 67546  97.2843 143.2863 0001878  90.9769 301.0384 15.33439351    11

Śledź STARLINK-36580 w czasie rzeczywistym z AllMySat

Download on the App Store